Change the Weather History Date:

Wednesday, May 16, 2012

  Actual Average Record
Temperature  
Mean Temperature 54 °F -  
Max Temperature 57 °F 56 °F 69 °F (1998)
Min Temperature 51 °F 40 °F 33 °F (1999)
Degree Days  
Heating Degree Days 11    
Growing Degree Days 4 (Base 50)    
Moisture  
Dew Point 52 °F    
Average Humidity 96    
Maximum Humidity 100    
Minimum Humidity 94    
Precipitation  
Precipitation 0.67 in - - ()
Sea Level Pressure  
Sea Level Pressure 29.91 in    
Wind  
Wind Speed 6 mph (South)    
Max Wind Speed 13 mph    
Max Gust Speed 18 mph    
Visibility 2 miles    
Events      
Averages and records for this station are not official NWS values.
T = Trace of Precipitation, MM = Missing Value Source: NWS Daily Summary

Daily Weather History Graph

Daily Weather History Graph

Search for Another Location

Airport or City:

Trip Planner

Search our weather history database for the weather conditions in past years. The results will help you decide how hot, cold, wet, or windy it might be!

Date:

Astronomy

May. 16, 2012 Rise Set
Actual Time 5:08 AM EDT 7:57 PM EDT
Civil Twilight 4:35 AM EDT 8:31 PM EDT
Nautical Twilight 3:52 AM EDT 9:14 PM EDT
Astronomical Twilight 3:03 AM EDT 10:03 PM EDT
Moon 2:44 AM EDT (5/16) 4:03 PM EDT (5/16)
Length of Visible Light 15h 56m
Length of Day
14h 49m
Waning Crescent, 16% of the Moon is Illuminated
May 16
Waning Crescent
May 20
New
May 28
First Quarter
Jun 4
Full
Jun 11
Last Quarter

Hourly Weather History & Observations

Time (EDT) Temp. Dew Point Humidity Pressure Visibility Wind Dir Wind Speed Gust Speed Precip Events Conditions
12:15 AM 53.6 °F 53.6 °F 100% 30.06 in 5.0 mi ESE 4.6 mph - 0.06 in   Overcast
12:35 AM 53.6 °F 51.8 °F 94% 30.05 in 4.0 mi East 5.8 mph - 0.11 in   Overcast
12:55 AM 53.6 °F 51.8 °F 94% 30.03 in 3.0 mi East 5.8 mph - 0.21 in   Overcast
1:15 AM 53.6 °F 51.8 °F 94% 30.02 in 3.0 mi East 4.6 mph - 0.17 in   Overcast
1:35 AM 51.8 °F 50.0 °F 94% 29.99 in 4.0 mi ENE 6.9 mph - 0.28 in   Overcast
1:55 AM 53.6 °F 51.8 °F 94% 29.98 in 5.0 mi SE 8.1 mph - 0.36 in   Overcast
2:15 AM 53.6 °F 51.8 °F 94% 29.98 in 5.0 mi SE 9.2 mph 16.1 mph 0.01 in   Overcast
2:35 AM 53.6 °F 51.8 °F 94% 29.96 in 5.0 mi SSE 12.7 mph - 0.02 in   Overcast
2:55 AM 53.6 °F 53.6 °F 100% 29.96 in 3.0 mi SSE 10.4 mph 18.4 mph 0.04 in   Overcast
3:15 AM 53.6 °F 51.8 °F 94% 29.95 in 4.0 mi South 10.4 mph 17.3 mph 0.01 in   Overcast
3:35 AM 53.6 °F 51.8 °F 94% 29.95 in 3.0 mi South 9.2 mph 16.1 mph 0.01 in   Overcast
3:55 AM 53.6 °F 53.6 °F 100% 29.94 in 1.8 mi SSW 8.1 mph - 0.01 in   Overcast
4:15 AM 53.6 °F 51.8 °F 94% 29.94 in 1.5 mi SSW 6.9 mph - N/A   Overcast
4:35 AM 53.6 °F 51.8 °F 94% 29.94 in 1.5 mi SSW 8.1 mph - 0.01 in   Overcast
4:55 AM 53.6 °F 51.8 °F 94% 29.94 in 2.0 mi SSW 6.9 mph - 0.02 in   Overcast
5:15 AM 53.6 °F 51.8 °F 94% 29.93 in 1.8 mi South 8.1 mph - N/A   Overcast
5:35 AM 53.6 °F 51.8 °F 94% 29.93 in 1.5 mi SSW 8.1 mph - 0.01 in   Overcast
5:55 AM 53.6 °F 51.8 °F 94% 29.93 in 0.8 mi SW 6.9 mph - 0.01 in   Overcast
6:15 AM 53.6 °F 51.8 °F 94% 29.93 in 1.0 mi South 4.6 mph - N/A   Overcast
6:35 AM 53.6 °F 51.8 °F 94% 29.93 in 1.0 mi South 5.8 mph - N/A   Overcast
6:55 AM 53.6 °F 51.8 °F 94% 29.94 in 1.2 mi SSW 6.9 mph - N/A   Overcast
7:15 AM 51.8 °F 50.0 °F 94% 29.93 in 0.5 mi SSW 6.9 mph - N/A   Overcast
7:35 AM 53.6 °F 51.8 °F 94% 29.93 in 0.2 mi South 8.1 mph - N/A   Overcast
7:55 AM 51.8 °F 50.0 °F 94% 29.93 in 0.2 mi SSW 10.4 mph - N/A   Overcast
8:15 AM 51.8 °F 50.0 °F 94% 29.93 in 0.2 mi South 8.1 mph - N/A   Overcast
8:55 AM 51.8 °F 50.0 °F 94% 29.93 in 0.5 mi SSW 6.9 mph - N/A   Overcast
9:15 AM 53.6 °F 51.8 °F 94% 29.93 in 0.5 mi SSW 8.1 mph - N/A   Overcast
9:35 AM 53.6 °F 51.8 °F 94% 29.93 in 0.5 mi SW 5.8 mph - N/A   Overcast
9:55 AM 53.6 °F 51.8 °F 94% 29.92 in 0.5 mi SSW 4.6 mph - N/A   Overcast
10:15 AM 53.6 °F 51.8 °F 94% 29.92 in 0.8 mi SSW 4.6 mph - N/A   Overcast
10:35 AM 55.4 °F 55.4 °F 100% 29.92 in 1.5 mi SSW 5.8 mph - N/A   Overcast
10:55 AM 55.4 °F 53.6 °F 94% 29.92 in 10.0 mi WSW 4.6 mph - N/A   Overcast
11:15 AM 57.2 °F 55.4 °F 94% 29.92 in 10.0 mi SSW 4.6 mph - N/A   Overcast
11:35 AM 57.2 °F 55.4 °F 94% 29.92 in 10.0 mi South 3.5 mph - N/A   Overcast
11:55 AM 53.6 °F 53.6 °F 100% 29.91 in 4.0 mi South 5.8 mph - N/A   Overcast
12:15 PM 53.6 °F 53.6 °F 100% 29.91 in 3.0 mi SSE 9.2 mph - N/A   Overcast
12:35 PM 51.8 °F 51.8 °F 100% 29.91 in 2.0 mi South 6.9 mph - 0.01 in   Overcast
1:15 PM 53.6 °F 53.6 °F 100% 29.89 in 7.0 mi Calm Calm - N/A   Overcast
1:35 PM 55.4 °F 55.4 °F 100% 29.88 in 10.0 mi ESE 9.2 mph - 0.01 in   Overcast
1:55 PM 51.8 °F 50.0 °F 94% 29.89 in 0.2 mi South 9.2 mph - 0.01 in   Overcast
2:15 PM 53.6 °F 53.6 °F 100% 29.88 in 0.2 mi South 4.6 mph - N/A   Overcast
2:35 PM 55.4 °F 53.6 °F 94% 29.87 in 0.2 mi SSW 8.1 mph - N/A   Overcast
2:55 PM 55.4 °F 55.4 °F 100% 29.87 in 0.8 mi South 4.6 mph - N/A   Overcast
3:35 PM 55.4 °F 55.4 °F 100% 29.86 in 0.8 mi SSW 9.2 mph - N/A   Overcast
3:55 PM 55.4 °F 53.6 °F 94% 29.85 in 0.5 mi South 8.1 mph - N/A   Overcast
4:15 PM 55.4 °F 53.6 °F 94% 29.85 in 0.5 mi South 6.9 mph - N/A   Overcast
4:55 PM 53.6 °F 51.8 °F 94% 29.83 in 0.8 mi South 9.2 mph - N/A   Overcast
5:15 PM 53.6 °F 53.6 °F 100% 29.83 in 0.5 mi South 8.1 mph - N/A   Overcast
5:35 PM 53.6 °F 51.8 °F 94% 29.83 in 0.2 mi SSW 6.9 mph - N/A   Overcast
5:55 PM 53.6 °F 53.6 °F 100% 29.83 in 0.5 mi South 5.8 mph - N/A   Overcast
6:35 PM 53.6 °F 51.8 °F 94% 29.83 in 0.2 mi SSW 6.9 mph - N/A   Overcast
6:55 PM 53.6 °F 51.8 °F 94% 29.84 in 0.5 mi SW 5.8 mph - N/A   Overcast
7:35 PM 53.6 °F 51.8 °F 94% 29.83 in 0.8 mi South 4.6 mph - N/A   Overcast
7:55 PM 51.8 °F 50.0 °F 94% 29.82 in 0.8 mi SSE 4.6 mph - N/A   Overcast
8:15 PM 51.8 °F 50.0 °F 94% 29.83 in 0.8 mi South 5.8 mph - N/A   Overcast
8:35 PM 51.8 °F 50.0 °F 94% 29.84 in 0.2 mi South 5.8 mph - N/A   Overcast
8:55 PM 51.8 °F 50.0 °F 94% 29.84 in 0.5 mi SSE 4.6 mph - N/A   Overcast
9:15 PM 51.8 °F 50.0 °F 94% 29.86 in 0.5 mi WSW 3.5 mph - N/A   Overcast
9:35 PM 51.8 °F 51.8 °F 100% 29.87 in 0.2 mi Calm Calm - N/A   Overcast
10:15 PM 53.6 °F 53.6 °F 100% 29.86 in 0.2 mi Calm Calm - N/A   Overcast
10:35 PM 53.6 °F 53.6 °F 100% 29.86 in 0.5 mi SW 3.5 mph - N/A   Overcast
10:55 PM 53.6 °F 53.6 °F 100% 29.86 in 0.5 mi WSW 3.5 mph - N/A   Overcast
11:15 PM 53.6 °F 51.8 °F 94% 29.85 in 1.2 mi WSW 3.5 mph - N/A   Overcast
11:35 PM 53.6 °F 51.8 °F 94% 29.84 in 1.0 mi Calm Calm - N/A   Overcast
11:55 PM 53.6 °F 53.6 °F 100% 29.83 in 0.5 mi SSE 3.5 mph - N/A   Overcast